Cloud_Cover
100 100 100 100 100 99 100 100 100 100 100 100 100 100 43 81 77 100 100 73 86 33 100 100 100 100 100
100 100 100 100 100 100 100 100 100 100 100 100 100 97 100 100 100 100 98 100 100 54 100 100 100 100 55
100 100 100 100 100 100 100 100 100 100 100 100 100 100 94 95 99 100 100 90 81 80 100 94 100 100 74
100 100 100 100 100 100 100 100 100 100 100 100 100 100 100 100 100 100 26 6 18 99 100 100 83 100 100
100 100 100 100 100 100 100 100 100 100 90 97 100 100 100 100 100 96 13 5 10 95 100 100 100 100 100
100 100 100 100 100 100 100 100 100 100 100 100 100 100 100 100 100 82 30 83 23 100 100 100 100 48 100
100 100 100 100 100 100 100 100 100 100 100 100 100 100 100 100 100 100 100 100 100 100 100 100 100 100 100
100 100 100 100 100 100 100 100 100 100 100 100 100 100 100 100 100 100 100 100 100 100 100 100 100 100 100
100 100 100 100 100 100 100 100 100 100 100 100 100 100 100 100 100 100 100 100 100 100 100 100 100 100 100
100 100 100 100 100 100 100 100 100 100 100 100 100 100 100 100 100 100 100 100 100 100 100 100 100 100 100
100 100 100 100 100 100 100 100 100 100 100 100 100 100 100 100 100 100 100 100 100 100 100 100 100 100 100
100 100 100 100 100 100 100 100 100 100 100 100 100 100 100 100 100 100 100 100 100 100 100 100 100 100 100
100 100 100 100 100 100 100 100 100 100 100 100 100 100 100 100 100 100 100 100 100 100 100 100 100 100 100
100 100 100 100 100 100 100 100 100 100 100 100 100 100 100 100 100 100 100 100 100 100 100 100 100 84 100
100 100 100 100 100 100 100 100 100 100 100 100 100 100 100 100 100 100 100 100 100 100 100 74 90 99 90
100 100 100 100 100 100 100 100 100 100 100 100 100 100 100 100 100 100 100 100 100 100 100 98 100 80 69
100 100 100 100 100 100 100 100 100 100 100 100 100 100 100 100 100 100 100 100 100 100 100 40 100 100 100